When you browse on this site, cookies collect data to enhance your experience and personalize the content and advertising you see.
Visit our Privacy Policy to learn more. By continuing to use the site, you agree to this use of cookies and data.
  • In Hungary
  • List of Countries
  • For 7 days
  • Water Temperature
  • Weather Map
  • News
  • Weather Widgets
  • user-avatar
    Login

    Hourly Weather Ulyanovka

    Today, 16 February, Sunday

    Time Temperature Precipitation Wind Pressure Humidity
    00:00 -13°C° 0 mm 1 mps 760 mmHg 96%
    01:00 -13°C° 0 mm 1 mps 761 mmHg 97%
    02:00 -14°C° 0 mm 1 mps 761 mmHg 97%
    03:00 -13°C° 0 mm 1 mps 761 mmHg 99%
    04:00 -14°C° 0 mm 1 mps 762 mmHg 99%
    05:00 -14°C° 0 mm 1 mps 762 mmHg 99%
    06:00 -14°C° 0 mm 1 mps 762 mmHg 98%
    07:00 -13°C° 0 mm 1 mps 763 mmHg 97%
    08:00 -12°C° 0 mm 1 mps 763 mmHg 97%
    09:00 -14°C° 0 mm 2 mps 763 mmHg 96%
    10:00 -13°C° 0 mm 2 mps 763 mmHg 95%
    11:00 -12°C° 0 mm 2 mps 763 mmHg 95%
    12:00 -10°C° 0 mm 2 mps 763 mmHg 94%
    13:00 -10°C° 0 mm 2 mps 763 mmHg 94%
    14:00 -10°C° 0 mm 2 mps 763 mmHg 95%
    15:00 -9°C° 0 mm 2 mps 764 mmHg 95%
    16:00 -12°C° 0 mm 2 mps 764 mmHg 95%
    17:00 -13°C° 0 mm 2 mps 763 mmHg 95%
    18:00 -14°C° 0 mm 2 mps 763 mmHg 95%
    19:00 -14°C° 0 mm 2 mps 763 mmHg 96%
    20:00 -14°C° 0 mm 2 mps 763 mmHg 96%
    21:00 -13°C° 0 mm 2 mps 763 mmHg 96%
    22:00 -14°C° 0 mm 3 mps 763 mmHg 96%
    23:00 -14°C° 0 mm 3 mps 763 mmHg 96%

    Tomorrow, 17 February, Monday

    Time Temperature Precipitation Wind Pressure Humidity
    00:00 -14°C° 0 mm 3 mps 763 mmHg 96%
    01:00 -15°C° 0 mm 4 mps 763 mmHg 96%
    02:00 -15°C° 0 mm 4 mps 763 mmHg 96%
    03:00 -15°C° 0 mm 4 mps 763 mmHg 96%
    04:00 -15°C° 0 mm 4 mps 762 mmHg 96%
    05:00 -14°C° 0 mm 5 mps 762 mmHg 95%
    06:00 -14°C° 0 mm 5 mps 762 mmHg 95%
    07:00 -15°C° 0 mm 6 mps 762 mmHg 94%
    08:00 -14°C° 0 mm 6 mps 761 mmHg 94%
    09:00 -14°C° 0 mm 7 mps 761 mmHg 94%
    10:00 -13°C° 0 mm 7 mps 761 mmHg 94%
    11:00 -12°C° 0 mm 8 mps 760 mmHg 93%
    12:00 -11°C° 0 mm 8 mps 759 mmHg 93%
    13:00 -10°C° 0 mm 9 mps 758 mmHg 93%
    14:00 -9°C° 0 mm 9 mps 758 mmHg 92%
    15:00 -8°C° 0 mm 9 mps 757 mmHg 91%
    16:00 -8°C° 0 mm 9 mps 756 mmHg 90%
    17:00 -8°C° 0 mm 10 mps 755 mmHg 90%
    18:00 -7°C° 0 mm 10 mps 754 mmHg 89%
    19:00 -7°C° 0 mm 10 mps 754 mmHg 89%
    20:00 -7°C° 0 mm 10 mps 753 mmHg 88%
    21:00 -7°C° 0 mm 10 mps 753 mmHg 88%
    22:00 -5°C° 0.5 mm 10 mps 752 mmHg 89%
    23:00 -5°C° 0.5 mm 10 mps 751 mmHg 90%

    Day after tomorrow, 18 February, Tuesday

    Time Temperature Precipitation Wind Pressure Humidity
    00:00 -5°C° 0.5 mm 10 mps 751 mmHg 91%
    01:00 -5°C° 0.7 mm 10 mps 751 mmHg 92%
    02:00 -5°C° 0.7 mm 10 mps 750 mmHg 94%
    03:00 -4°C° 0.7 mm 10 mps 750 mmHg 95%
    04:00 -4°C° 0.4 mm 9 mps 750 mmHg 95%
    05:00 -4°C° 0.4 mm 9 mps 750 mmHg 94%
    06:00 -4°C° 0.4 mm 9 mps 750 mmHg 94%
    07:00 -4°C° 0.1 mm 8 mps 750 mmHg 94%
    08:00 -4°C° 0.1 mm 8 mps 750 mmHg 94%
    09:00 -3°C° 0.1 mm 7 mps 751 mmHg 94%
    10:00 -3°C° 0.3 mm 7 mps 751 mmHg 95%
    11:00 -3°C° 0.3 mm 7 mps 750 mmHg 97%
    12:00 -3°C° 0.3 mm 7 mps 750 mmHg 98%
    13:00 -3°C° 0.7 mm 7 mps 750 mmHg 98%
    14:00 -3°C° 0.7 mm 7 mps 750 mmHg 98%
    15:00 -3°C° 0.7 mm 7 mps 750 mmHg 98%
    16:00 -3°C° 0.6 mm 7 mps 750 mmHg 98%
    17:00 -3°C° 0.6 mm 7 mps 750 mmHg 98%
    18:00 -3°C° 0.6 mm 7 mps 750 mmHg 97%
    19:00 -3°C° 0.9 mm 7 mps 750 mmHg 97%
    20:00 -3°C° 0.9 mm 7 mps 750 mmHg 97%
    21:00 -3°C° 0.9 mm 7 mps 750 mmHg 97%
    22:00 -3°C° 0.5 mm 7 mps 749 mmHg 96%
    23:00 -4°C° 0.5 mm 8 mps 749 mmHg 95%

    19 February, Wednesday

    Time Temperature Precipitation Wind Pressure Humidity
    00:00 -4°C° 0.5 mm 8 mps 748 mmHg 93%
    01:00 -4°C° 0.2 mm 8 mps 748 mmHg 94%
    02:00 -4°C° 0.2 mm 8 mps 748 mmHg 94%
    03:00 -4°C° 0.2 mm 8 mps 748 mmHg 94%
    04:00 -4°C° 0.1 mm 8 mps 747 mmHg 93%
    05:00 -3°C° 0.1 mm 7 mps 747 mmHg 93%
    06:00 -3°C° 0.1 mm 7 mps 746 mmHg 92%
    07:00 -3°C° 0.1 mm 7 mps 746 mmHg 93%
    08:00 -3°C° 0.1 mm 7 mps 747 mmHg 93%
    09:00 -3°C° 0.1 mm 7 mps 747 mmHg 94%
    10:00 -3°C° 0.1 mm 7 mps 747 mmHg 95%
    11:00 -3°C° 0.1 mm 6 mps 747 mmHg 96%
    12:00 -3°C° 0.1 mm 6 mps 747 mmHg 97%
    13:00 -2°C° 0 mm 5 mps 747 mmHg 97%
    14:00 -2°C° 0 mm 5 mps 747 mmHg 97%
    15:00 -2°C° 0 mm 4 mps 748 mmHg 97%
    16:00 -1°C° 0 mm 4 mps 748 mmHg 97%
    17:00 -1°C° 0 mm 4 mps 748 mmHg 97%
    18:00 -1°C° 0 mm 4 mps 748 mmHg 97%
    19:00 -1°C° 0 mm 4 mps 749 mmHg 97%
    20:00 -1°C° 0 mm 4 mps 749 mmHg 96%
    21:00 -2°C° 0 mm 4 mps 750 mmHg 96%
    22:00 -2°C° 0 mm 4 mps 750 mmHg 96%
    23:00 -2°C° 0 mm 4 mps 750 mmHg 96%

    20 February, Thursday

    Time Temperature Precipitation Wind Pressure Humidity
    00:00 -2°C° 0 mm 4 mps 750 mmHg 97%
    01:00 -2°C° 0 mm 4 mps 750 mmHg 97%
    02:00 -1°C° 0 mm 3 mps 750 mmHg 97%
    03:00 -1°C° 0 mm 3 mps 751 mmHg 97%
    04:00 -1°C° 0 mm 3 mps 751 mmHg 97%
    05:00 -1°C° 0 mm 3 mps 751 mmHg 96%
    06:00 -2°C° 0 mm 3 mps 751 mmHg 95%
    07:00 -2°C° 0 mm 3 mps 751 mmHg 95%
    08:00 -3°C° 0 mm 2 mps 752 mmHg 95%
    09:00 -3°C° 0 mm 2 mps 752 mmHg 95%
    10:00 -2°C° 0 mm 2 mps 752 mmHg 95%
    11:00 -2°C° 0 mm 2 mps 753 mmHg 96%
    12:00 -1°C° 0 mm 2 mps 753 mmHg 96%
    13:00 -1°C° 0 mm 2 mps 753 mmHg 96%
    14:00 -1°C° 0 mm 2 mps 753 mmHg 96%
    15:00 -1°C° 0 mm 2 mps 754 mmHg 96%
    16:00 0°C° 0 mm 1 mps 754 mmHg 96%
    17:00 -1°C° 0 mm 1 mps 754 mmHg 96%
    18:00 -2°C° 0 mm 1 mps 754 mmHg 95%
    19:00 -2°C° 0 mm 1 mps 754 mmHg 96%
    20:00 -3°C° 0 mm 1 mps 754 mmHg 96%
    21:00 -3°C° 0 mm 1 mps 755 mmHg 97%
    22:00 -3°C° 0 mm 1 mps 755 mmHg 97%
    23:00 -3°C° 0 mm 1 mps 755 mmHg 97%

    21 February, Friday

    Time Temperature Precipitation Wind Pressure Humidity
    00:00 -4°C° 0 mm 1 mps 755 mmHg 97%
    01:00 -4°C° 0 mm 1 mps 755 mmHg 97%
    02:00 -4°C° 0 mm 1 mps 755 mmHg 97%
    03:00 -5°C° 0 mm 0 mps 755 mmHg 97%
    04:00 -5°C° 0 mm 0 mps 755 mmHg 97%
    05:00 -5°C° 0 mm 0 mps 755 mmHg 97%
    06:00 -5°C° 0 mm 0 mps 755 mmHg 97%
    07:00 -4°C° 0 mm 1 mps 755 mmHg 97%
    08:00 -3°C° 0 mm 1 mps 755 mmHg 97%
    09:00 -3°C° 0 mm 1 mps 756 mmHg 97%
    16:00 -2°C° 0 mm 1 mps 756 mmHg 94%
    17:00 -2°C° 0 mm 1 mps 756 mmHg 94%
    18:00 -5°C° 0 mm 2 mps 756 mmHg 95%
    19:00 -5°C° 0 mm 2 mps 756 mmHg 94%
    20:00 -5°C° 0 mm 2 mps 756 mmHg 94%
    21:00 -6°C° 0 mm 2 mps 756 mmHg 94%
    22:00 -6°C° 0 mm 2 mps 756 mmHg 94%
    23:00 -7°C° 0 mm 2 mps 756 mmHg 95%
    Show more